TimeEDT,TemperatureF,Dew PointF,Humidity,Sea Level PressureIn,VisibilityMPH,Wind Direction,Wind SpeedMPH,Gust SpeedMPH,PrecipitationIn,Events,Conditions,WindDirDegrees,DateUTC
12:52 AM,59.0,57.0,93,30.01,10.0,SSE,3.5,-,N/A,,Overcast,150,2014-05-11 04:52:00
1:52 AM,57.2,55.4,94,30.04,10.0,South,3.5,-,N/A,,Overcast,180,2014-05-11 05:52:00
2:52 AM,57.0,55.9,96,30.03,10.0,Calm,Calm,-,N/A,,Overcast,0,2014-05-11 06:52:00
3:52 AM,55.9,55.9,100,30.03,10.0,Calm,Calm,-,N/A,,Overcast,0,2014-05-11 07:52:00
4:52 AM,57.0,55.9,96,30.04,10.0,Calm,Calm,-,N/A,,Overcast,0,2014-05-11 08:52:00
5:52 AM,55.0,54.0,96,30.05,10.0,Calm,Calm,-,N/A,,Mostly Cloudy,0,2014-05-11 09:52:00
5:56 AM,55.4,53.6,94,30.06,10.0,Calm,Calm,-,N/A,,Partly Cloudy,0,2014-05-11 09:56:00
6:52 AM,55.9,55.0,97,30.06,10.0,Calm,Calm,-,N/A,Fog,Patches of Fog,0,2014-05-11 10:52:00
7:52 AM,60.1,60.1,100,30.09,5.0,Calm,Calm,-,N/A,,Mostly Cloudy,0,2014-05-11 11:52:00
8:34 AM,60.8,57.2,88,30.15,4.0,NW,15.0,28.8,0.01,Rain,Rain,310,2014-05-11 12:34:00
8:52 AM,61.0,59.0,93,30.13,6.0,NNW,10.4,-,0.03,Rain,Light Rain,340,2014-05-11 12:52:00
9:04 AM,60.8,59.0,94,30.13,2.5,NNE,10.4,-,0.04,Rain,Rain,30,2014-05-11 13:04:00
9:20 AM,60.8,59.0,94,30.09,5.0,NNE,12.7,-,0.08,Rain,Light Rain,30,2014-05-11 13:20:00
9:52 AM,64.9,61.0,87,30.10,10.0,ENE,4.6,-,0.08,,Mostly Cloudy,60,2014-05-11 13:52:00
10:52 AM,69.1,63.0,81,30.08,10.0,SSE,8.1,-,N/A,,Mostly Cloudy,160,2014-05-11 14:52:00
11:52 AM,73.9,64.0,71,30.07,10.0,SSE,11.5,-,N/A,,Mostly Cloudy,160,2014-05-11 15:52:00
12:52 PM,77.0,64.9,66,30.07,10.0,South,12.7,-,N/A,,Scattered Clouds,180,2014-05-11 16:52:00
1:52 PM,78.8,66.2,65,30.07,10.0,South,15.0,-,N/A,,Scattered Clouds,170,2014-05-11 17:52:00
2:52 PM,81.0,64.9,58,30.04,10.0,SW,11.5,-,N/A,,Scattered Clouds,220,2014-05-11 18:52:00
3:52 PM,80.1,64.9,60,30.02,10.0,South,15.0,21.9,N/A,,Mostly Cloudy,170,2014-05-11 19:52:00
4:52 PM,82.4,64.4,54,30.01,10.0,South,16.1,-,N/A,,Mostly Cloudy,170,2014-05-11 20:52:00
5:52 PM,80.1,64.9,60,29.99,10.0,South,11.5,20.7,N/A,,Mostly Cloudy,180,2014-05-11 21:52:00
6:52 PM,80.1,64.0,58,29.98,10.0,South,12.7,-,N/A,,Mostly Cloudy,190,2014-05-11 22:52:00
7:52 PM,77.0,63.0,62,29.99,10.0,SSW,8.1,-,N/A,,Mostly Cloudy,200,2014-05-11 23:52:00
8:52 PM,75.0,63.0,66,30.00,10.0,Calm,Calm,-,N/A,,Overcast,0,2014-05-12 00:52:00
9:52 PM,73.9,63.0,68,30.00,10.0,SSE,3.5,-,N/A,,Overcast,150,2014-05-12 01:52:00
10:52 PM,73.0,63.0,71,30.01,10.0,South,4.6,-,N/A,,Overcast,180,2014-05-12 02:52:00
11:52 PM,71.1,63.0,75,30.03,10.0,South,6.9,-,N/A,,Mostly Cloudy,190,2014-05-12 03:52:00